Weather History for KFNB - September, 2013

Change the Weather History Date:

Wednesday, September 11, 2013

  Actual Average (KSTJ) Record (KSTJ)
Temperature  
Mean Temperature 78 °F 68 °F  
Max Temperature 86 °F 81 °F 100 °F (1936)
Min Temperature 69 °F 56 °F 41 °F (1968)
Degree Days  
Heating Degree Days 0 1  
Month to date heating degree days 9  
Since 1 July heating degree days 14  
Cooling Degree Days 12 5  
Month to date cooling degree days 65  
Year to date cooling degree days 1142  
Growing Degree Days 28 (Base 50)    
Moisture  
Dew Point 69 °F    
Average Humidity 77    
Maximum Humidity 100    
Minimum Humidity 56    
Precipitation  
Precipitation 0.17 in 0.12 in 4.44 in (1925)
Month to date precipitation 1.51  
Year to date precipitation 27.81  
Sea Level Pressure  
Sea Level Pressure 30.06 in    
Wind  
Wind Speed 4 mph (NNW)    
Max Wind Speed 14 mph    
Max Gust Speed 22 mph    
Visibility 9 miles    
Events Rain , Thunderstorm    
T = Trace of Precipitation, MM = Missing Value Source: NWS Daily Summary

Daily Weather History Graph

Daily Weather History Graph

Search for Another Location

Airport or City:

Trip Planner

Search our weather history database for the weather conditions in past years. The results will help you decide how hot, cold, wet, or windy it might be!

Date:

Astronomy

Sep. 11, 2013 Rise Set
Actual Time 6:59 AM CDT 7:37 PM CDT
Civil Twilight 6:32 AM CDT 8:04 PM CDT
Nautical Twilight 6:00 AM CDT 8:36 PM CDT
Astronomical Twilight 5:26 AM CDT 9:09 PM CDT
Moon 1:29 PM CDT (9/11) 11:34 PM CDT (9/11)
Length of Visible Light 13h 32m
Length of Day
12h 37m
Waxing Crescent, 39% of the Moon is Illuminated
Sep 11
Waxing Crescent
Sep 12
First Quarter
Sep 19
Full
Sep 26
Last Quarter
Oct 4
New

Hourly Weather History & Observations

Time (CDT) Temp. Heat Index Dew Point Humidity Pressure Visibility Wind Dir Wind Speed Gust Speed Precip Events Conditions
12:53 AM 75.0 °F - 64.0 °F 69% 30.01 in 10.0 mi South 3.5 mph - N/A   Clear
1:53 AM 78.1 °F - 62.1 °F 58% 30.04 in 10.0 mi NW 4.6 mph - N/A   Mostly Cloudy
2:53 AM 78.1 °F - 61.0 °F 56% 30.05 in 10.0 mi West 10.4 mph - N/A   Mostly Cloudy
3:53 AM 75.9 °F - 62.1 °F 62% 30.04 in 10.0 mi Calm Calm - N/A   Mostly Cloudy
4:53 AM 73.0 °F - 63.0 °F 71% 30.04 in 10.0 mi South 4.6 mph - N/A   Mostly Cloudy
5:53 AM 72.0 °F - 63.0 °F 73% 30.05 in 10.0 mi Calm Calm - N/A   Mostly Cloudy
6:53 AM 69.1 °F - 64.0 °F 84% 30.05 in 10.0 mi Calm Calm - N/A   Clear
7:53 AM 69.1 °F - 64.0 °F 84% 30.06 in 8.0 mi Calm Calm - N/A   Clear
8:53 AM 73.0 °F - 66.0 °F 79% 30.06 in 10.0 mi Calm Calm - N/A   Partly Cloudy
9:53 AM 80.1 °F 82.1 °F 66.0 °F 62% 30.06 in 10.0 mi SSW 10.4 mph - N/A   Clear
10:53 AM 81.0 °F 83.3 °F 66.9 °F 62% 30.07 in 10.0 mi WSW 4.6 mph - N/A   Scattered Clouds
11:53 AM 84.0 °F 88.4 °F 70.0 °F 63% 30.07 in 10.0 mi North 5.8 mph - N/A   Partly Cloudy
12:53 PM 79.0 °F - 70.0 °F 74% 30.08 in 10.0 mi NNE 3.5 mph - 0.00 in   Mostly Cloudy
1:53 PM 82.0 °F 85.5 °F 69.1 °F 65% 30.07 in 10.0 mi NW 6.9 mph - N/A   Mostly Cloudy
2:53 PM 86.0 °F 92.2 °F 72.0 °F 63% 30.05 in 10.0 mi NNE 6.9 mph - N/A   Mostly Cloudy
3:53 PM 84.9 °F 90.1 °F 71.1 °F 63% 30.04 in 10.0 mi NNE 4.6 mph - N/A   Clear
4:53 PM 82.9 °F 88.8 °F 73.0 °F 72% 30.03 in 10.0 mi North 3.5 mph - N/A   Clear
5:53 PM 84.0 °F 90.2 °F 73.0 °F 69% 30.04 in 10.0 mi North 8.1 mph - N/A Thunderstorm Partly Cloudy
6:17 PM 80.6 °F 84.6 °F 71.6 °F 74% 30.06 in 10.0 mi North 13.8 mph 21.9 mph 0.00 in   Partly Cloudy
6:53 PM 77.0 °F - 71.1 °F 82% 30.04 in 10.0 mi North 4.6 mph - 0.00 in   Clear
7:53 PM 75.0 °F - 72.0 °F 90% 30.05 in 9.0 mi Calm Calm - N/A   Clear
8:53 PM 73.9 °F - 71.1 °F 91% 30.06 in 10.0 mi Calm Calm - N/A   Partly Cloudy
9:53 PM 73.9 °F - 72.0 °F 93% 30.07 in 10.0 mi WSW 6.9 mph - N/A   Mostly Cloudy
10:53 PM 73.0 °F - 72.0 °F 96% 30.08 in 10.0 mi WNW 5.8 mph - N/A   Overcast
11:16 PM 73.4 °F - 71.6 °F 94% 30.11 in 5.0 mi NW 3.5 mph - 0.02 in Rain , Thunderstorm Light Rain
11:21 PM 73.4 °F - 71.6 °F 94% 30.11 in 1.8 mi North 4.6 mph - 0.10 in Rain , Thunderstorm Heavy Rain
11:32 PM 73.4 °F - 73.4 °F 100% 30.11 in 2.5 mi NNW 4.6 mph - 0.17 in Rain Heavy Rain
11:39 PM 73.4 °F - 73.4 °F 100% 30.11 in 7.0 mi North 4.6 mph - 0.17 in Rain Light Rain
11:53 PM 73.0 °F - 73.0 °F 100% 30.08 in 10.0 mi North 3.5 mph - 0.17 in   Mostly Cloudy